Stündliche Wetter Abramenki

Heute, 25 Juni, Freitag

Zeit Temperatur Niederschläge Wind Luftdruck Luftfeuchtigkeit
00:00 +21°C° 0.3 mm 2 m/S 747 mmHg 92%
01:00 +20°C° 0.3 mm 2 m/S 747 mmHg 93%
02:00 +20°C° 0.3 mm 2 m/S 747 mmHg 95%
03:00 +21°C° 0.1 mm 1 m/S 747 mmHg 93%
04:00 +21°C° 0.1 mm 1 m/S 746 mmHg 92%
05:00 +19°C° 0.1 mm 0 m/S 746 mmHg 91%
06:00 +23°C° 0.1 mm 1 m/S 746 mmHg 85%
07:00 +24°C° 0.1 mm 1 m/S 746 mmHg 78%
08:00 +26°C° 0.1 mm 2 m/S 746 mmHg 72%
09:00 +27°C° 0 mm 2 m/S 746 mmHg 66%
10:00 +29°C° 0 mm 2 m/S 746 mmHg 61%
11:00 +31°C° 0 mm 3 m/S 746 mmHg 55%
12:00 +31°C° 0 mm 3 m/S 746 mmHg 54%
13:00 +33°C° 0 mm 3 m/S 746 mmHg 54%
14:00 +33°C° 0 mm 3 m/S 746 mmHg 53%
15:00 +33°C° 0.4 mm 3 m/S 745 mmHg 57%
16:00 +31°C° 0.4 mm 3 m/S 744 mmHg 60%
17:00 +31°C° 0.4 mm 3 m/S 744 mmHg 64%
18:00 +27°C° 1.4 mm 3 m/S 744 mmHg 73%
19:00 +24°C° 1.4 mm 2 m/S 744 mmHg 82%
20:00 +21°C° 1.4 mm 1 m/S 744 mmHg 91%
21:00 +20°C° 0 mm 2 m/S 744 mmHg 90%
22:00 +20°C° 0 mm 2 m/S 744 mmHg 89%
23:00 +19°C° 0 mm 2 m/S 744 mmHg 88%

Morgen, 26 Juni, Samstag

Zeit Temperatur Niederschläge Wind Luftdruck Luftfeuchtigkeit
00:00 +19°C° 0.2 mm 2 m/S 744 mmHg 90%
01:00 +19°C° 0.2 mm 1 m/S 744 mmHg 92%
02:00 +19°C° 0.2 mm 1 m/S 744 mmHg 94%
03:00 +19°C° 0 mm 1 m/S 744 mmHg 93%
04:00 +20°C° 0 mm 1 m/S 744 mmHg 92%
05:00 +19°C° 0 mm 2 m/S 744 mmHg 92%
06:00 +20°C° 0 mm 2 m/S 744 mmHg 85%
07:00 +23°C° 0 mm 2 m/S 744 mmHg 78%
08:00 +25°C° 0 mm 2 m/S 745 mmHg 71%
09:00 +26°C° 0 mm 2 m/S 745 mmHg 67%
10:00 +27°C° 0 mm 3 m/S 745 mmHg 63%
11:00 +28°C° 0 mm 3 m/S 745 mmHg 59%
12:00 +29°C° 0 mm 3 m/S 745 mmHg 57%
13:00 +29°C° 0 mm 3 m/S 744 mmHg 55%
14:00 +30°C° 0 mm 3 m/S 744 mmHg 53%
15:00 +29°C° 0 mm 3 m/S 744 mmHg 56%
16:00 +29°C° 0 mm 3 m/S 744 mmHg 59%
17:00 +29°C° 0 mm 3 m/S 744 mmHg 62%
18:00 +27°C° 0 mm 3 m/S 744 mmHg 70%
19:00 +25°C° 0 mm 2 m/S 744 mmHg 78%
20:00 +24°C° 0 mm 2 m/S 744 mmHg 86%
21:00 +23°C° 0 mm 2 m/S 744 mmHg 89%
22:00 +21°C° 0 mm 2 m/S 745 mmHg 93%
23:00 +20°C° 0 mm 2 m/S 745 mmHg 96%

übermorgen, 27 Juni, Sonntag

Zeit Temperatur Niederschläge Wind Luftdruck Luftfeuchtigkeit
00:00 +19°C° 0.6 mm 2 m/S 745 mmHg 96%
01:00 +19°C° 0.6 mm 2 m/S 745 mmHg 97%
02:00 +19°C° 0.6 mm 2 m/S 745 mmHg 98%
03:00 +19°C° 0.5 mm 2 m/S 745 mmHg 98%
04:00 +20°C° 0.5 mm 1 m/S 745 mmHg 98%
05:00 +20°C° 0.5 mm 1 m/S 745 mmHg 97%
06:00 +19°C° 0.7 mm 2 m/S 745 mmHg 98%
07:00 +19°C° 0.7 mm 2 m/S 745 mmHg 98%
08:00 +20°C° 0.7 mm 2 m/S 745 mmHg 98%
09:00 +20°C° 0.1 mm 2 m/S 745 mmHg 94%
10:00 +21°C° 0.1 mm 3 m/S 745 mmHg 90%
11:00 +22°C° 0.1 mm 3 m/S 745 mmHg 86%
12:00 +22°C° 0.5 mm 3 m/S 745 mmHg 88%
13:00 +21°C° 0.5 mm 3 m/S 745 mmHg 90%
14:00 +21°C° 0.5 mm 3 m/S 745 mmHg 92%
15:00 +21°C° 0.2 mm 3 m/S 745 mmHg 92%
16:00 +21°C° 0.2 mm 3 m/S 745 mmHg 93%
17:00 +20°C° 0.2 mm 3 m/S 745 mmHg 93%
18:00 +20°C° 0 mm 2 m/S 745 mmHg 93%
19:00 +20°C° 0 mm 2 m/S 745 mmHg 93%
20:00 +20°C° 0 mm 1 m/S 745 mmHg 93%
21:00 +20°C° 0 mm 1 m/S 745 mmHg 94%
22:00 +18°C° 0 mm 2 m/S 745 mmHg 94%
23:00 +17°C° 0 mm 2 m/S 745 mmHg 94%

28 Juni, Montag

Zeit Temperatur Niederschläge Wind Luftdruck Luftfeuchtigkeit
00:00 +17°C° 0 mm 2 m/S 745 mmHg 94%
01:00 +17°C° 0 mm 2 m/S 745 mmHg 94%
02:00 +17°C° 0 mm 2 m/S 744 mmHg 94%
03:00 +17°C° 0 mm 2 m/S 745 mmHg 94%
04:00 +17°C° 0 mm 2 m/S 745 mmHg 93%
05:00 +17°C° 0 mm 2 m/S 745 mmHg 93%
06:00 +19°C° 0 mm 3 m/S 745 mmHg 85%
07:00 +20°C° 0 mm 3 m/S 745 mmHg 76%
08:00 +22°C° 0 mm 3 m/S 745 mmHg 68%
09:00 +23°C° 0 mm 4 m/S 745 mmHg 61%
10:00 +25°C° 0 mm 4 m/S 745 mmHg 54%
11:00 +26°C° 0 mm 4 m/S 745 mmHg 48%
12:00 +26°C° 0 mm 4 m/S 745 mmHg 47%
13:00 +27°C° 0 mm 4 m/S 745 mmHg 46%
14:00 +27°C° 0 mm 4 m/S 745 mmHg 45%
15:00 +27°C° 0 mm 3 m/S 745 mmHg 47%
16:00 +27°C° 0 mm 3 m/S 744 mmHg 49%
17:00 +27°C° 0 mm 3 m/S 744 mmHg 51%
18:00 +25°C° 0 mm 3 m/S 744 mmHg 57%
19:00 +22°C° 0 mm 3 m/S 744 mmHg 63%
20:00 +21°C° 0 mm 3 m/S 744 mmHg 69%
21:00 +20°C° 0 mm 3 m/S 743 mmHg 72%
22:00 +19°C° 0 mm 3 m/S 743 mmHg 74%
23:00 +19°C° 0 mm 3 m/S 743 mmHg 76%

29 Juni, Dienstag

Zeit Temperatur Niederschläge Wind Luftdruck Luftfeuchtigkeit
00:00 +18°C° 0 mm 3 m/S 743 mmHg 76%
01:00 +18°C° 0 mm 3 m/S 743 mmHg 76%
02:00 +18°C° 0 mm 3 m/S 743 mmHg 77%
03:00 +18°C° 0 mm 3 m/S 743 mmHg 77%
04:00 +18°C° 0 mm 3 m/S 743 mmHg 78%
05:00 +18°C° 0 mm 3 m/S 742 mmHg 78%
06:00 +19°C° 0 mm 3 m/S 742 mmHg 76%
07:00 +19°C° 0 mm 3 m/S 742 mmHg 74%
08:00 +20°C° 0 mm 3 m/S 742 mmHg 72%
09:00 +20°C° 0.1 mm 3 m/S 742 mmHg 73%
10:00 +20°C° 0.1 mm 4 m/S 742 mmHg 73%
11:00 +21°C° 0.1 mm 4 m/S 742 mmHg 73%
12:00 +20°C° 0.6 mm 4 m/S 742 mmHg 77%
13:00 +19°C° 0.6 mm 4 m/S 742 mmHg 82%
14:00 +18°C° 0.6 mm 4 m/S 742 mmHg 87%
15:00 +18°C° 0.7 mm 4 m/S 742 mmHg 89%
16:00 +17°C° 0.7 mm 4 m/S 742 mmHg 92%
17:00 +17°C° 0.7 mm 4 m/S 742 mmHg 94%
18:00 +15°C° 0.1 mm 4 m/S 742 mmHg 94%
19:00 +15°C° 0.1 mm 4 m/S 741 mmHg 95%
20:00 +15°C° 0.1 mm 4 m/S 741 mmHg 95%
21:00 +15°C° 0 mm 4 m/S 741 mmHg 94%
22:00 +17°C° 0 mm 4 m/S 741 mmHg 93%
23:00 +17°C° 0 mm 4 m/S 741 mmHg 91%

30 Juni, Mittwoch

Zeit Temperatur Niederschläge Wind Luftdruck Luftfeuchtigkeit
00:00 +17°C° 0 mm 4 m/S 740 mmHg 88%
01:00 +16°C° 0 mm 5 m/S 740 mmHg 86%
02:00 +17°C° 0 mm 5 m/S 740 mmHg 83%
03:00 +17°C° 0 mm 5 m/S 740 mmHg 81%
04:00 +18°C° 0 mm 4 m/S 740 mmHg 79%
05:00 +18°C° 0 mm 4 m/S 740 mmHg 77%
06:00 +19°C° 0 mm 4 m/S 740 mmHg 74%
07:00 +20°C° 0 mm 4 m/S 740 mmHg 72%
08:00 +20°C° 0 mm 4 m/S 740 mmHg 69%
09:00 +21°C° 0 mm 4 m/S 740 mmHg 67%
10:00 +22°C° 0 mm 4 m/S 740 mmHg 66%
11:00 +23°C° 0 mm 4 m/S 740 mmHg 64%
12:00 +22°C° 0.1 mm 4 m/S 740 mmHg 69%
13:00 +22°C° 0.1 mm 4 m/S 740 mmHg 74%
14:00 +21°C° 0.1 mm 4 m/S 740 mmHg 78%
15:00 +21°C° 0.2 mm 4 m/S 740 mmHg 82%
16:00 +20°C° 0.2 mm 4 m/S 740 mmHg 86%
17:00 +19°C° 0.2 mm 4 m/S 740 mmHg 90%
18:00 +19°C° 0 mm 3 m/S 740 mmHg 91%
19:00 +18°C° 0 mm 3 m/S 740 mmHg 92%
20:00 +18°C° 0 mm 3 m/S 740 mmHg 93%
21:00 +18°C° 0 mm 3 m/S 740 mmHg 94%
22:00 +17°C° 0 mm 2 m/S 740 mmHg 95%
23:00 +17°C° 0 mm 2 m/S 740 mmHg 96%
Mehr zeigen

Wir brauchen deine Erlaubnis

Meteoprog und unser Service Anbieter werden persönliche Daten aufbewahren, so wie Cookies, Geräte Bezeichnung oder ähnliche Technologien von deinem Gerät und Prozess, so wie Persönliche Daten Inhalte und Werbungen, genauso wie social Media und den Verkehr zu analysieren.

  • Aufbewahrung und/oder Zugang zu deiner Geräte Informationen.

    Cookies, Geräte Bezeichnung oder andere Informationen, können aufbewahrt oder Zugang zu deinem Gerät erhalten, für den Grund, der oben angegeben wird.

  • Personalisierte Werbung und Inhalte, Messungen, Einblick in das Publikum und Produkt Entwicklung.

    Werbungen und Inhalte können personalisiert werden, basierend auf ein Profil. Mehr Daten können besser personalisierte Werbungen und Inhalte hinzufügen. Werbung und Inhalte können gezeigt und gemessen werden. Einblicke über das Publikum, welche die Werbung gesehen haben und den Inhalt, können abgeleitet werden. So wie Daten können genutzt werden, um es zu verbessern oder die Benutzer Erfahrung zu verbessern das System und die Software.

Wenn du “Ich stimme zu” klickst, erlaubst du uns, die Cookies zu benutzen die Geräte Bezeichnung, den Web oder ähnliche Technologien zu benutzen. Deine Settings, können in deinem Gerät bei deinem Browser geändert werden.

Für den bestimmten Zweck, berechtigten Interessen beruhen darauf, mehr als auf den Inhalt. Du kannst mehr darüber in unseren Privaten und Cookie Politik lesen.